Cork Airport

Airport
ICAO code: 
EICK
IATA Code: 
ORK
Summary
ICAO Region: 
EUR
Territory: 
Location: 
Cork, County Cork
Serving: 
Cork
Elevation: 
502 ft
Coordinates: 
Aerial View: 
51° 50' 29" N, 8° 29' 28" W
Metar
Observation
EICK 190700Z 30012KT 9999 FEW012 08/07 Q1028 NOSIG
Station
Cork Airport
Date/Time
2022-01-19 07:00:00
Wind direction
300°
Wind speed
12 kts
Lowest cloud amount
few clouds
Temperature
8°C
Dew point
7°C
Humidity
93%
QNH
1028 hPa
Weather condition
n/a

Description

International airport serving Cork.

Climatology

Temperate Marine climate/Oceanic climate (Köppen climate classification Cfb). Moderately cool summer and comparatively warm winter with a temperature range of only 14°C. Prevailing south-westerly winds from the Atlantic Ocean.

Runways

Designator Length Width Surface Rops
7/25 1310 45 PEM Yes/Yes
17/35 2133 45 ASP Yes/Yes
Airport map: 
Aerial View: 

Accidents and Serious Incidents at or in the vicinity of EICK

SKYbrary Partners:

Safety knowledge contributed by: